TimeCST,TemperatureF,Dew PointF,Humidity,Sea Level PressureIn,VisibilityMPH,Wind Direction,Wind SpeedMPH,Gust SpeedMPH,PrecipitationIn,Events,Conditions,WindDirDegrees,DateUTC
12:53 AM,23.0,21.0,92,30.11,5.0,NNE,4.6,-,N/A,,Clear,20,2012-11-30 06:53:00
1:40 AM,23.0,21.2,93,30.03,5.0,NNE,3.5,-,N/A,,Partly Cloudy,30,2012-11-30 07:40:00
1:53 AM,24.1,21.9,91,30.11,5.0,East,5.8,-,N/A,,Scattered Clouds,80,2012-11-30 07:53:00
2:03 AM,24.8,21.2,86,30.04,5.0,NE,5.8,-,N/A,,Mostly Cloudy,50,2012-11-30 08:03:00
2:53 AM,26.1,23.0,88,30.10,5.0,East,10.4,-,N/A,,Overcast,90,2012-11-30 08:53:00
3:53 AM,26.1,24.1,92,30.12,5.0,East,6.9,-,N/A,,Overcast,90,2012-11-30 09:53:00
4:53 AM,25.0,23.0,92,30.10,4.0,East,8.1,-,N/A,,Overcast,90,2012-11-30 10:53:00
5:53 AM,25.0,23.0,92,30.16,4.0,Calm,Calm,-,N/A,,Overcast,0,2012-11-30 11:53:00
6:37 AM,24.8,23.0,93,30.08,4.0,ESE,3.5,-,N/A,,Overcast,110,2012-11-30 12:37:00
6:53 AM,24.1,23.0,96,30.14,3.0,East,3.5,-,N/A,,Overcast,90,2012-11-30 12:53:00
7:29 AM,24.8,23.0,93,30.05,2.0,ESE,6.9,-,N/A,,Overcast,110,2012-11-30 13:29:00
7:53 AM,24.1,21.9,91,30.14,1.2,ESE,9.2,-,N/A,,Overcast,120,2012-11-30 13:53:00
8:53 AM,24.1,23.0,96,30.17,1.2,SSE,4.6,-,N/A,,Overcast,160,2012-11-30 14:53:00
9:38 AM,24.8,23.0,93,30.09,1.5,ESE,6.9,-,N/A,,Overcast,110,2012-11-30 15:38:00
9:53 AM,24.1,23.0,96,30.15,1.5,SE,6.9,-,N/A,,Overcast,140,2012-11-30 15:53:00
10:07 AM,24.8,24.8,100,30.09,2.0,SE,4.6,-,N/A,,Overcast,140,2012-11-30 16:07:00
10:53 AM,26.1,24.1,92,30.15,2.5,ESE,6.9,-,N/A,,Overcast,120,2012-11-30 16:53:00
11:02 AM,26.6,24.8,93,30.07,3.0,SE,6.9,-,N/A,,Overcast,130,2012-11-30 17:02:00
11:53 AM,28.0,25.0,88,30.12,4.0,SSE,9.2,-,N/A,,Overcast,160,2012-11-30 17:53:00
12:03 PM,28.4,24.8,86,30.04,4.0,SSE,8.1,-,N/A,,Overcast,160,2012-11-30 18:03:00
12:53 PM,32.0,26.1,79,30.10,5.0,SSE,6.9,-,N/A,,Haze,160,2012-11-30 18:53:00
1:53 PM,35.1,27.0,72,30.06,6.0,SSE,12.7,-,N/A,,Haze,160,2012-11-30 19:53:00
2:53 PM,37.9,28.0,68,30.04,7.0,SSE,9.2,-,N/A,,Clear,160,2012-11-30 20:53:00
3:53 PM,37.0,28.9,73,30.03,6.0,SSE,6.9,-,N/A,,Haze,150,2012-11-30 21:53:00
4:53 PM,36.0,28.9,76,30.01,5.0,SE,9.2,-,N/A,,Haze,140,2012-11-30 22:53:00
5:53 PM,34.0,27.0,75,29.99,7.0,SE,13.8,-,N/A,,Clear,140,2012-11-30 23:53:00
6:53 PM,32.0,27.0,82,29.95,7.0,SSE,13.8,-,N/A,,Clear,150,2012-12-01 00:53:00
7:53 PM,34.0,28.0,79,29.93,6.0,SSE,15.0,23.0,N/A,,Haze,160,2012-12-01 01:53:00
8:53 PM,34.0,28.9,82,29.93,6.0,South,16.1,23.0,N/A,,Haze,170,2012-12-01 02:53:00
9:53 PM,35.1,30.0,82,29.92,6.0,South,15.0,-,N/A,,Haze,170,2012-12-01 03:53:00
10:53 PM,35.1,30.0,82,29.91,6.0,South,19.6,27.6,N/A,,Haze,170,2012-12-01 04:53:00
11:53 PM,35.1,30.9,85,29.87,5.0,SSE,20.7,25.3,N/A,,Clear,160,2012-12-01 05:53:00